Regional Weather Roundup
Issued by NWS Wakefield, VA

Home | Current Version | Previous Version | Text Only | Print | Product List | Glossary On
Versions: 1 2 3 4 5 6 7 8 9 10 11 12 13 14 15 16 17 18 19 20 21 22 23 24 25 26 27
000
ASUS41 KAKQ 040815
RWRAKQ

REGIONAL WEATHER ROUNDUP
NATIONAL WEATHER SERVICE WAKEFIELD VA
400 AM EDT WED MAY 04 2016

Note: "fair" indicates few or no clouds below 12,000 feet with no
significant weather and/or obstructions to visibility. * = Denotes
station may not report precipitation (e.g., rain,snow,etc.),
thunder or fog.

VAZ042-051-052>054-056-040900-
NORTHERN VIRGINIA

CITY           SKY/WX    TMP DP  RH WIND       PRES   REMARKS
WASH NATIONAL  CLOUDY    56  54  93 NE8       29.75S
DULLES         CLOUDY    55  53  93 E5        29.74S
FORT BELVOIR   CLOUDY    56  55  94 VRB1      29.74S
QUANTICO       CLOUDY    58  55  90 E8        29.75S
FREDERICKSBRG* CLOUDY    58  58 100 E5        29.73F
STAFFORD*      CLOUDY    56  55  94 NE5       29.78S FOG
WARRENTON      CLOUDY    57  53  84 CALM      29.74R FOG
CULPEPER*      FOG       54  54 100 CALM      29.75R VSB 1/2
MANASSAS*      CLOUDY    57  57 100 CALM      29.75R
LEESBURG*      CLOUDY    55  55 100 CALM      29.75S FOG
WINCHESTER     CLOUDY    54  52  94 CALM      29.74S
FRONT ROYAL*   CLOUDY    54  54 100 CALM      29.73S
LURAY*         FOG       54  54 100 CALM      29.74S VSB 1/4
$$

VAZ048-049-060>072-079>083-040900-
CENTRAL AND SOUTH CENTRAL VIRGINIA

CITY           SKY/WX    TMP DP  RH WIND       PRES   REMARKS
RICHMOND       CLOUDY    60  58  92 N7        29.70F
CHESTERFIELD*  CLOUDY    61  50  67 N5        29.72F
PETERSBURG*    CLOUDY    62  62 100 N5        29.72S
HANOVER        CLOUDY    59  58  96 VRB5      29.73F FOG
TAPPAHANNOCK*  DRIZZLE   57  57 100 N7        29.73S
QUINTON*       CLOUDY    60  60 100 N3        29.70F FOG
CHARLOTTSVILLE FOG       57  55  93 CALM      29.73S VSB 1/4
GORDONSVILLE*  CLOUDY    56  56 100 NE3       29.73R
ORANGE*        CLOUDY    57  57 100 NE6       29.75S FOG
LOUISA*        CLOUDY    61  59  94 NE3       29.72S FOG
BUMPASS*       CLOUDY    57  57  99 CALM      29.73S
FARMVILLE*     CLOUDY    60  60 100 N3        29.71F
CREWE*         CLOUDY    59  59 100 CALM      29.72R
FORT PICKETT*  NOT AVBL
CHASE CITY*    CLOUDY    60  59  94 CALM      29.71F
CLARKSVILLE*   CLOUDY    61  61 100 N5        29.70S
SOUTH HILL*    CLOUDY    60  60  99 N8        29.75F
LAWRENCEVILLE* CLOUDY    60  60 100 N5        29.69F
EMPORIA*       LGT RAIN  59  59 100 NW8       29.68F
$$

VAZ088>098-040900-
SOUTHEAST VIRGINIA

CITY           SKY/WX    TMP DP  RH WIND       PRES   REMARKS
NORFOLK        HVY RAIN  59  57  93 N12       29.68F FOG
VIRGINIA BEACH LGT RAIN  63  58  83 N13       29.66F FOG
NORFOLK NAVAL  RAIN      60  58  92 NE10      29.70F FOG
WEST POINT*    CLOUDY    58  57  98 E7        29.72F
SALUDA*        CLOUDY    56  56 100 NE6       29.71F
NEWPORT NEWS   RAIN      58  57  97 N8        29.69F
LANGLEY AFB    LGT RAIN  59  59 100 NE10      29.69F FOG
FORT EUSTIS    LGT RAIN  59  59 100 NE6       29.67F
WILLIAMSBURG*  CLOUDY    61  59  94 E3        29.71S
HR EXEC AP*      N/A    N/A N/A N/A NE9       29.68F
FRANKLIN*      FAIR      60  59  98 NW3       29.67F
US460-WAKEFLD  LGT RAIN  62  60  93 N6        29.69F
$$

VAZ020-022-025-037-045-040900-
WEST CENTRAL AND SOUTHWEST VIRGINIA

CITY           SKY/WX    TMP DP  RH WIND       PRES   REMARKS
STAUNTON*      CLOUDY    55  55 100 CALM      29.76S
WAYNESBORO*    CLOUDY    55  53  94 W9        29.74F
HOT SPRINGS VA FOG       45  45 100 W10       29.75F VSB 3/4
LYNCHBURG      MOCLDY    54  50  86 CALM      29.75F
DANVILLE       MOCLDY    58  51  78 N5        29.73S
SOUTH BOSTON*  CLOUDY    59  58  96 NW5       29.72S
MARTINSVILLE   CLOUDY    52  49  91 NW5       29.77S
ROANOKE        MOCLDY    53  47  79 CALM      29.77S
BLACKSBURG     CLOUDY    49  46  91 CALM      29.80S
DUBLIN*        CLOUDY    52  48  86 W3        29.79S
MARION*        MOCLDY    49  44  83 SW5       29.82S
HILLSVILLE*    MOCLDY    49  44  82 N8        29.77S
RICHLANDS*     CLOUDY    49  33  55 W3        29.80F
WISE*          CLOUDY    50  41  71 W3        29.82F
ABINGDON*      CLOUDY    54  44  70 CALM      29.80F
$$

MDZ021>025-VAZ099-100-040900-
SOUTHERN MARYLAND AND THE DELMARVA PENINSULA

CITY           SKY/WX    TMP DP  RH WIND       PRES   REMARKS
PATUXENT RIVER CLOUDY    53  50  89 NE9       29.73F
BAY BRIDGE APT NOT AVBL
LEONARDTOWN    CLOUDY    52  52 100 E3        29.75F
DOVER          CLOUDY    51  51 100 N8        29.75S
GEORGETOWN     LGT RAIN  50  50 100 NE9       29.75S
EASTON         CLOUDY   N/A N/A N/A E6        29.79S
CAMBRIDGE      CLOUDY    50  50 100 NE3       29.74F
SALISBURY      CLOUDY    51  50  96 NE7       29.73F FOG
OCEAN CITY     CLOUDY    50  49  96 NE12G18   29.73F FOG
WALLOPS ISLAND CLOUDY    52  51  97 N7        29.73R FOG
ACCOMACK*      CLOUDY    52  45  76 NE9       29.70F HAZE
$$

NCZ012>017-030>032-040900-
NORTH CENTRAL AND EASTERN NORTH CAROLINA

CITY           SKY/WX    TMP DP  RH WIND       PRES   REMARKS
ROANOKE RAPIDS NOT AVBL
RALEIGH        PTCLDY    61  58  90 N3        29.71S
ELIZABETH CITY PTCLDY    62  62 100 W3        29.67R
AHOSKIE*       PTCLDY    60  59  97 CALM      29.66F FOG
EDENTON*       PTCLDY    64  64 100 NW3       29.67R
CURRITUCK*     NOT AVBL
KILL DEVIL HLS PTCLDY    64  62  94 CALM      29.65S
MANTEO         NOT AVBL
CAPE HATTERAS  LGT RAIN  67  65  93 NW5       29.66F
TARBORO*       FOG       61  60  97 CALM      29.67F VSB 1/2
GOLDSBORO      MOCLDY    64  64 100 NW6       29.66F
WASHINGTON     CLOUDY    62  61  96 CALM      29.67R
GREENVILLE     PTCLDY    63  63 100 SW3       29.70F
NEW BERN       CLOUDY    64  61  90 CALM      29.69R
WILMINGTON     CLEAR     68  64  87 SW8       29.68F
$$

VAZ048-040900-
ELSEWHERE

CITY           SKY/WX    TMP DP  RH WIND       PRES   REMARKS
HARRISBURG PA  CLOUDY    54  51  90 E6        29.75S FOG
BALTIMORE      CLOUDY    54  52  93 E9        29.75R
ANNAPOLIS      CLOUDY    54  52  93 E7        29.75R
ANDREWS AFB    CLOUDY    54  53  95 E7        29.74R
PHILADELPHIA   LGT RAIN  52  47  83 E7        29.79S
HENDERSON NC   MOCLDY    61  61 100 NW5       29.71R
GREENSBORO     MOCLDY    59  50  72 N5        29.73F
ROCKY MOUNT    FOG       60  60 100 CALM      29.68F VSB 1/2
$$

VAZ100-040900-
MARINE

STATION/POSITION TIME  TEMP    WIND        PRES    WAVE   SWELL
                       AIR SEA DIR/SP/G            HT/PER HT/PER
                 (UTC) (F)     (DEG/KT/KT) (MB)    (FT/S) (FT/S)
BRANDYWINE LGT   0700   50      50/ 10/ 12 1008.1F
CAPE MAY NJ      0700   49 58   20/  3/  7 1007.8R
LEWES DE         0700   50 57   30/ 12/ 13 1007.6F
15NM E FENWICK I 0750   49 52              1006.8R   5/ 6
OCEAN-CITY-INLET 0700   50 57   60/  5/  8 1006.7R
WACHAPREAGUE VA  0700   53 65   30/  7/  9 1005.9F
THOMAS POINT MD  0800   53 59   80/  9/ 10 1008.7R
GOOSES REEF MD   0800   54 59   70/ 10/ 12 1008.1F   1/ 2
COVE POINT MD    0700   53      70/ 11/ 12 1007.7F
SOLOMONS ISLAND  0700   54 62   40/  6/  9   N/A
BISHOPS HEAD MD  0700   53 63   60/  8/ 12 1006.5F
PINEY POINT MD   0700           60/  7/  9   N/A
POTOMAC MD       0800   54 60   40/ 10/ 14 1005.7F   1
CAMBRIDGE MD     0700   53 62   20/  7/ 10 1006.9S
LEWISETTA VA     0700   56 63   60/  7/ 12 1006.5F
RAPPAHANNOCK LGT 0700           30/ 15/ 17 1006.4F
STINGRAY PT      0800   56 62   50/ 12/ 14 1006.3F   2/ 3
YORK RVR RNG VA  0700   58      40/ 13/ 14 1005.1F
YORKTOWN VA      0700   59 63   40/  9/ 11 1005.5F
JAMESTOWN VA     0800   59 67   50/  6/  8   N/A     0
DOMINION TERM VA 0700   61      20/  5/  7 1005.9R
KIPTOPEKE VA     0700      62   30/  6/ 11   N/A
CHES BAY BRIDGE  0700   59 63  360/ 12/ 14 1005.5R
CAPE HENRY VA    0700   59      20/  9/ 10   N/A
CHESAPEAKE LGHT  0700   58     350/  9/  9 1006.3F
WILLOUBY STN VA  0700   60     360/  8/  9 1006.9R
CAPE HENRY BUOY  0712      60                N/A     3/ 5
CAPE CHARLES BUO 0726      58                N/A     3/ 9   2/ 9
OFFSHORE WE BUOY 0721      57                N/A     3/ 6   3/ 6
64NM E OF VA BCH 0750   56 55  160/  6/  6 1004.0F   3/ 7   3/ 7
44100 DUCK FRF   0724      60                N/A     2/ 7
44056 DUCK FRF   0711      58                N/A     2/ 8
OREGON INLET NC  0700   67 71  250/  2/  5 1004.5F
HATTERAS NC      0700   70 69  230/  4/  5 1004.5F
DIAMOND SHLS NC  0750   73 72  230/ 12/ 14 1004.3F   4/ 6   3/ 7
CAPE LOOKOUT NC  0800   70     260/ 14/ 18 1004.2S
$$




USA.gov is the U.S. government's official web portal to all federal, state and local government web resources and services.